Location: Bartlett
(35.2045°N, 89.8740°W)
Time: 17:59:27
(UTC+00:00)

Transit 4A - Pass Details

Date: 22 December 2025
Orbit: 867 x 974 km, 66.8° (Epoch: 14 January)

Event Time Altitude Azimuth Distance (km) Brightness Sun altitude
Rises 06:44:36 0° 346° (NNW) 3,533 - -74.5°
Reaches altitude 10° 06:47:47 10° 3° (N) 2,608 - -74.0°
Maximum altitude 06:52:14 21° 50° (NE) 1,967 - -73.4°
Drops below altitude 10° 06:56:46 10° 98° (E) 2,656 - -72.7°
Sets 07:00:01 0° 114° (ESE) 3,615 - -72.1°
